TimeCDT,TemperatureF,Dew PointF,Humidity,Sea Level PressureIn,VisibilityMPH,Wind Direction,Wind SpeedMPH,Gust SpeedMPH,PrecipitationIn,Events,Conditions,WindDirDegrees,DateUTC
12:58 AM,38.5,15.8,40,30.03,10.0,ESE,12.7,-,N/A,,Clear,110,2013-03-21 05:58:00
1:58 AM,37.2,17.1,44,30.00,10.0,East,12.7,-,N/A,,Overcast,100,2013-03-21 06:58:00
2:58 AM,36.9,16.5,44,29.99,10.0,East,15.0,-,N/A,,Overcast,100,2013-03-21 07:58:00
3:58 AM,36.3,16.5,45,29.98,10.0,East,12.7,-,N/A,,Clear,100,2013-03-21 08:58:00
4:55 AM,35.6,15.8,44,29.91,10.0,East,13.8,-,N/A,,Mostly Cloudy,90,2013-03-21 09:55:00
5:58 AM,34.9,16.2,46,29.93,10.0,East,18.4,23.0,N/A,,Partly Cloudy,90,2013-03-21 10:58:00
6:58 AM,35.2,15.4,44,29.91,10.0,East,15.0,-,N/A,,Clear,90,2013-03-21 11:58:00
7:58 AM,36.0,15.1,43,29.89,10.0,East,18.4,27.6,N/A,,Scattered Clouds,90,2013-03-21 12:58:00
8:47 AM,37.4,14.0,38,29.86,10.0,East,21.9,32.2,N/A,,Mostly Cloudy,100,2013-03-21 13:47:00
8:55 AM,37.4,14.0,38,29.85,10.0,ESE,25.3,33.4,N/A,,Mostly Cloudy,110,2013-03-21 13:55:00
9:53 AM,39.2,12.2,33,29.84,10.0,ESE,20.7,31.1,N/A,,Clear,110,2013-03-21 14:53:00
9:55 AM,39.2,12.2,33,29.84,10.0,East,20.7,31.1,N/A,,Clear,100,2013-03-21 14:55:00
10:11 AM,41.0,12.2,31,29.83,10.0,ESE,25.3,32.2,N/A,,Clear,110,2013-03-21 15:11:00
10:28 AM,41.0,10.4,29,29.83,10.0,East,19.6,29.9,N/A,,Clear,100,2013-03-21 15:28:00
10:40 AM,41.0,10.4,29,29.83,10.0,ESE,23.0,34.5,N/A,,Clear,110,2013-03-21 15:40:00
10:55 AM,42.8,12.2,29,29.83,10.0,ESE,20.7,31.1,N/A,,Clear,110,2013-03-21 15:55:00
11:55 AM,44.6,14.0,29,29.80,10.0,East,24.2,28.8,N/A,,Partly Cloudy,100,2013-03-21 16:55:00
12:55 PM,46.4,15.8,29,29.79,10.0,ESE,19.6,31.1,N/A,,Clear,110,2013-03-21 17:55:00
1:55 PM,46.4,15.8,29,29.76,10.0,ESE,20.7,27.6,N/A,,Partly Cloudy,110,2013-03-21 18:55:00
2:55 PM,46.4,17.6,32,29.73,10.0,ESE,17.3,31.1,N/A,,Partly Cloudy,110,2013-03-21 19:55:00
3:55 PM,44.6,17.6,34,29.73,10.0,East,20.7,25.3,N/A,,Mostly Cloudy,90,2013-03-21 20:55:00
4:58 PM,42.1,18.5,39,29.76,10.0,East,18.4,-,0.00,,Overcast,80,2013-03-21 21:58:00
5:58 PM,40.6,21.7,47,29.77,10.0,East,17.3,24.2,N/A,,Overcast,90,2013-03-21 22:58:00
6:58 PM,38.3,26.6,63,29.79,10.0,East,16.1,-,N/A,,Overcast,80,2013-03-21 23:58:00
7:58 PM,36.1,30.4,80,29.82,10.0,East,16.1,-,N/A,,Overcast,80,2013-03-22 00:58:00
8:03 PM,35.6,32.0,87,29.78,10.0,ENE,16.1,-,N/A,,Overcast,70,2013-03-22 01:03:00
8:43 PM,35.6,32.0,87,29.79,10.0,ENE,15.0,-,N/A,,Overcast,70,2013-03-22 01:43:00
8:58 PM,34.9,33.6,95,29.79,10.0,ENE,15.0,19.6,N/A,,Overcast,60,2013-03-22 01:58:00
9:53 PM,33.8,33.8,100,29.79,10.0,ENE,17.3,23.0,N/A,,Overcast,70,2013-03-22 02:53:00
9:58 PM,34.0,34.0,100,29.79,10.0,ENE,15.0,23.0,N/A,,Overcast,70,2013-03-22 02:58:00
10:08 PM,33.8,33.8,100,29.80,10.0,East,13.8,-,N/A,,Overcast,90,2013-03-22 03:08:00
10:13 PM,33.8,33.8,100,29.80,10.0,East,13.8,-,N/A,,Overcast,90,2013-03-22 03:13:00
10:58 PM,34.0,34.0,100,29.81,10.0,East,16.1,-,N/A,,Overcast,90,2013-03-22 03:58:00
11:58 PM,34.0,34.0,100,29.84,10.0,East,11.5,-,N/A,,Overcast,100,2013-03-22 04:58:00